• In Uzbekistan
  • List of Countries
  • For 7 days
  • Water Temperature
  • Satellite Maps
  • Weather Map
  • Weather Widgets
  • user-avatar
    Login

    Hourly Weather Vashana

    Today, 20 August, Monday

    Time Temperature Precipitation Wind Pressure Humidity
    00:00 +17°C° 0 mm 3 mps 747 mmHg 73%
    01:00 +17°C° 0 mm 3 mps 747 mmHg 75%
    02:00 +16°C° 0 mm 3 mps 747 mmHg 77%
    03:00 +16°C° 0 mm 2 mps 747 mmHg 82%
    04:00 +16°C° 0 mm 2 mps 747 mmHg 83%
    05:00 +16°C° 0 mm 2 mps 746 mmHg 84%
    06:00 +16°C° 0 mm 2 mps 746 mmHg 85%
    07:00 +18°C° 0 mm 3 mps 746 mmHg 80%
    08:00 +19°C° 0 mm 3 mps 746 mmHg 75%
    09:00 +21°C° 0 mm 3 mps 747 mmHg 69%
    10:00 +22°C° 0 mm 4 mps 746 mmHg 65%
    11:00 +25°C° 0 mm 4 mps 746 mmHg 61%
    12:00 +26°C° 0 mm 4 mps 746 mmHg 56%
    13:00 +26°C° 0.2 mm 4 mps 746 mmHg 56%
    14:00 +26°C° 0.2 mm 5 mps 746 mmHg 55%
    15:00 +27°C° 0 mm 4 mps 745 mmHg 55%
    16:00 +27°C° 0.2 mm 3 mps 745 mmHg 59%
    17:00 +26°C° 0.2 mm 3 mps 745 mmHg 63%
    18:00 +26°C° 0.2 mm 2 mps 744 mmHg 67%
    19:00 +24°C° 0 mm 2 mps 744 mmHg 72%
    20:00 +21°C° 0 mm 2 mps 744 mmHg 77%
    21:00 +19°C° 0 mm 2 mps 744 mmHg 82%
    22:00 +19°C° 0 mm 2 mps 744 mmHg 84%
    23:00 +18°C° 0 mm 2 mps 744 mmHg 86%

    Tomorrow, 21 August, Tuesday

    Time Temperature Precipitation Wind Pressure Humidity
    00:00 +18°C° 0 mm 2 mps 744 mmHg 88%
    01:00 +18°C° 0 mm 3 mps 743 mmHg 89%
    02:00 +17°C° 0 mm 3 mps 743 mmHg 91%
    03:00 +17°C° 0 mm 3 mps 743 mmHg 92%
    04:00 +17°C° 0 mm 3 mps 742 mmHg 91%
    05:00 +17°C° 0 mm 4 mps 742 mmHg 91%
    06:00 +17°C° 0 mm 4 mps 742 mmHg 90%
    07:00 +19°C° 0 mm 5 mps 741 mmHg 84%
    08:00 +21°C° 0 mm 6 mps 741 mmHg 77%
    09:00 +23°C° 0 mm 7 mps 741 mmHg 70%
    10:00 +23°C° 0.2 mm 7 mps 740 mmHg 68%
    11:00 +24°C° 0.2 mm 7 mps 740 mmHg 66%
    12:00 +26°C° 0.2 mm 8 mps 740 mmHg 63%
    13:00 +26°C° 1.2 mm 7 mps 739 mmHg 67%
    14:00 +24°C° 1.2 mm 7 mps 739 mmHg 72%
    15:00 +23°C° 1.2 mm 7 mps 739 mmHg 76%
    16:00 +22°C° 0.5 mm 6 mps 739 mmHg 77%
    17:00 +22°C° 0.5 mm 6 mps 739 mmHg 79%
    18:00 +21°C° 0.5 mm 5 mps 739 mmHg 80%
    19:00 +20°C° 0 mm 4 mps 739 mmHg 82%
    20:00 +18°C° 0 mm 4 mps 740 mmHg 83%
    21:00 +17°C° 0 mm 4 mps 740 mmHg 85%
    22:00 +16°C° 0 mm 3 mps 740 mmHg 85%
    23:00 +14°C° 0 mm 3 mps 741 mmHg 84%

    Day after tomorrow, 22 August, Wednesday

    Time Temperature Precipitation Wind Pressure Humidity
    00:00 +13°C° 0 mm 3 mps 741 mmHg 84%
    01:00 +12°C° 0 mm 3 mps 742 mmHg 85%
    02:00 +11°C° 0 mm 3 mps 742 mmHg 86%
    03:00 +11°C° 0 mm 3 mps 742 mmHg 87%
    04:00 +10°C° 0 mm 3 mps 743 mmHg 87%
    05:00 +10°C° 0 mm 3 mps 743 mmHg 88%
    06:00 +10°C° 0 mm 3 mps 743 mmHg 88%
    07:00 +11°C° 0 mm 4 mps 744 mmHg 81%
    08:00 +13°C° 0 mm 4 mps 744 mmHg 74%
    09:00 +14°C° 0 mm 5 mps 744 mmHg 67%
    10:00 +16°C° 0 mm 5 mps 744 mmHg 62%
    11:00 +17°C° 0 mm 5 mps 745 mmHg 58%
    12:00 +19°C° 0 mm 6 mps 745 mmHg 53%
    13:00 +19°C° 0 mm 5 mps 745 mmHg 52%
    14:00 +19°C° 0 mm 5 mps 745 mmHg 51%
    15:00 +20°C° 0 mm 5 mps 746 mmHg 49%
    16:00 +19°C° 0 mm 5 mps 746 mmHg 53%
    17:00 +19°C° 0 mm 4 mps 746 mmHg 57%
    18:00 +18°C° 0 mm 3 mps 746 mmHg 60%
    19:00 +17°C° 0 mm 3 mps 747 mmHg 64%
    20:00 +14°C° 0 mm 3 mps 748 mmHg 68%
    21:00 +12°C° 0 mm 3 mps 748 mmHg 72%
    22:00 +11°C° 0 mm 3 mps 748 mmHg 74%
    23:00 +11°C° 0 mm 3 mps 749 mmHg 75%

    23 August, Thursday

    Time Temperature Precipitation Wind Pressure Humidity
    00:00 +10°C° 0 mm 2 mps 749 mmHg 77%
    01:00 +9°C° 0 mm 2 mps 750 mmHg 78%
    02:00 +9°C° 0 mm 2 mps 750 mmHg 79%
    03:00 +9°C° 0 mm 2 mps 750 mmHg 80%
    04:00 +8°C° 0 mm 2 mps 750 mmHg 81%
    05:00 +8°C° 0 mm 2 mps 751 mmHg 82%
    06:00 +8°C° 0 mm 2 mps 751 mmHg 83%
    07:00 +10°C° 0 mm 2 mps 751 mmHg 76%
    08:00 +13°C° 0 mm 2 mps 751 mmHg 68%
    09:00 +15°C° 0 mm 1 mps 752 mmHg 61%
    10:00 +16°C° 0 mm 2 mps 752 mmHg 55%
    11:00 +18°C° 0 mm 2 mps 752 mmHg 50%
    12:00 +19°C° 0 mm 2 mps 751 mmHg 44%
    13:00 +19°C° 0 mm 2 mps 751 mmHg 43%
    14:00 +20°C° 0 mm 2 mps 751 mmHg 42%
    15:00 +20°C° 0 mm 2 mps 751 mmHg 41%
    16:00 +20°C° 0 mm 2 mps 751 mmHg 46%
    17:00 +21°C° 0 mm 1 mps 751 mmHg 50%
    18:00 +20°C° 0 mm 1 mps 751 mmHg 54%
    19:00 +18°C° 0 mm 1 mps 751 mmHg 58%
    20:00 +15°C° 0 mm 1 mps 751 mmHg 61%
    21:00 +13°C° 0 mm 1 mps 751 mmHg 65%
    22:00 +13°C° 0 mm 1 mps 751 mmHg 66%
    23:00 +13°C° 0 mm 1 mps 751 mmHg 67%

    24 August, Friday

    Time Temperature Precipitation Wind Pressure Humidity
    00:00 +12°C° 0 mm 1 mps 751 mmHg 69%
    01:00 +12°C° 0 mm 1 mps 751 mmHg 70%
    02:00 +12°C° 0 mm 1 mps 751 mmHg 71%
    03:00 +10°C° 0 mm 2 mps 751 mmHg 72%
    04:00 +10°C° 0 mm 2 mps 751 mmHg 73%
    05:00 +10°C° 0 mm 2 mps 751 mmHg 74%
    06:00 +10°C° 0 mm 2 mps 751 mmHg 76%
    07:00 +13°C° 0 mm 2 mps 751 mmHg 70%
    08:00 +15°C° 0 mm 2 mps 751 mmHg 65%
    09:00 +17°C° 0 mm 2 mps 751 mmHg 60%
    10:00 +18°C° 0 mm 3 mps 751 mmHg 56%
    11:00 +20°C° 0 mm 3 mps 750 mmHg 52%
    12:00 +21°C° 0 mm 3 mps 750 mmHg 47%
    13:00 +21°C° 0 mm 3 mps 750 mmHg 47%
    14:00 +22°C° 0 mm 3 mps 750 mmHg 46%
    15:00 +22°C° 0 mm 3 mps 749 mmHg 46%
    16:00 +22°C° 0 mm 3 mps 749 mmHg 50%
    17:00 +21°C° 0 mm 2 mps 749 mmHg 54%
    18:00 +21°C° 0 mm 2 mps 748 mmHg 58%
    19:00 +19°C° 0 mm 2 mps 748 mmHg 63%
    20:00 +17°C° 0 mm 2 mps 748 mmHg 67%
    21:00 +15°C° 0 mm 2 mps 748 mmHg 71%
    22:00 +15°C° 0 mm 2 mps 748 mmHg 72%
    23:00 +14°C° 0 mm 2 mps 748 mmHg 73%

    25 August, Saturday

    Time Temperature Precipitation Wind Pressure Humidity
    00:00 +14°C° 0 mm 2 mps 748 mmHg 74%
    01:00 +13°C° 0 mm 3 mps 748 mmHg 74%
    02:00 +12°C° 0 mm 3 mps 748 mmHg 74%
    03:00 +12°C° 0 mm 3 mps 748 mmHg 74%
    04:00 +12°C° 0 mm 3 mps 748 mmHg 74%
    05:00 +12°C° 0 mm 3 mps 748 mmHg 74%
    06:00 +11°C° 0 mm 3 mps 748 mmHg 74%
    07:00 +13°C° 0 mm 3 mps 748 mmHg 70%
    08:00 +17°C° 0 mm 3 mps 747 mmHg 65%
    09:00 +19°C° 0 mm 3 mps 747 mmHg 60%
    10:00 +20°C° 0 mm 4 mps 747 mmHg 55%
    11:00 +22°C° 0 mm 4 mps 747 mmHg 50%
    12:00 +23°C° 0 mm 5 mps 747 mmHg 45%
    13:00 +23°C° 0 mm 5 mps 747 mmHg 45%
    14:00 +25°C° 0 mm 5 mps 746 mmHg 44%
    15:00 +25°C° 0 mm 5 mps 746 mmHg 44%
    16:00 +23°C° 0 mm 4 mps 746 mmHg 49%
    17:00 +24°C° 0 mm 3 mps 745 mmHg 53%
    18:00 +22°C° 0 mm 3 mps 745 mmHg 58%
    19:00 +20°C° 0 mm 3 mps 745 mmHg 61%
    20:00 +18°C° 0 mm 3 mps 745 mmHg 65%
    21:00 +17°C° 0 mm 3 mps 745 mmHg 68%
    22:00 +16°C° 0 mm 3 mps 745 mmHg 68%
    23:00 +16°C° 0 mm 3 mps 745 mmHg 68%
    Show more